| time (UTC) | temp C | wind direction | speed KPH | gust KPH | rain 1hr cm | rain 24hr cm | rain mn cm | humidity % | barometer mb |
| 20260905221554 | 17 | 249 | 1.6 | 9.7 | 0.00 | 0.10 | 0.03 | 87 | 1018.7 |
| 20260905220053 | 17 | 190 | 0.0 | 6.4 | 0.00 | 0.10 | 0.03 | 85 | 1018.8 |
| 20260905214553 | 18 | 286 | 0.0 | 8.0 | 0.00 | 0.10 | 0.03 | 83 | 1018.8 |
| 20260905213051 | 18 | 286 | 0.0 | 4.8 | 0.00 | 0.10 | 0.03 | 85 | 1018.8 |
| 20260905211552 | 17 | 285 | 1.6 | 9.7 | 0.00 | 0.10 | 0.03 | 85 | 1018.8 |
| 20260905210107 | 17 | 290 | 1.6 | 8.0 | 0.00 | 0.10 | 0.03 | 85 | 1018.8 |
| 20260905204552 | 17 | 198 | 1.6 | 6.4 | 0.00 | 0.10 | 0.03 | 88 | 1018.9 |
| 20260905203050 | 17 | 294 | 1.6 | 12.9 | 0.00 | 0.10 | 0.03 | 85 | 1018.9 |
| 20260905201549 | 18 | 329 | 3.2 | 14.5 | 0.00 | 0.10 | 0.03 | 83 | 1018.9 |
| 20260905200055 | 18 | 274 | 1.6 | 12.9 | 0.00 | 0.10 | 0.03 | 87 | 1018.8 |
| 20260905194548 | 18 | 316 | 4.8 | 11.3 | 0.00 | 0.10 | 0.03 | 86 | 1018.9 |
| 20260905193050 | 18 | 307 | 0.0 | 9.7 | 0.00 | 0.10 | 0.03 | 82 | 1019.1 |
| 20260905191548 | 18 | 283 | 0.0 | 4.8 | 0.00 | 0.10 | 0.03 | 82 | 1019.1 |
| 20260905190055 | 18 | 253 | 0.0 | 4.8 | 0.00 | 0.10 | 0.03 | 81 | 1019.0 |
| 20260905184546 | 18 | 170 | 0.0 | 0.0 | 0.00 | 0.10 | 0.03 | 82 | 1019.0 |
| 20260905183042 | 17 | 334 | 0.0 | 0.0 | 0.00 | 0.10 | 0.03 | 84 | 1019.0 |
| 20260905181543 | 17 | 334 | 0.0 | 0.0 | 0.00 | 0.10 | 0.03 | 84 | 1019.1 |
| 20260905180039 | 17 | 297 | 0.0 | 0.0 | 0.00 | 0.10 | 0.03 | 84 | 1019.1 |
| 20260905174541 | 17 | 290 | 0.0 | 0.0 | 0.00 | 0.10 | 0.03 | 86 | 1019.2 |
| 20260905173034 | 16 | 120 | 0.0 | 0.0 | 0.00 | 0.10 | 0.03 | 90 | 1019.3 |
| 20260905171542 | 16 | 31 | 1.6 | 4.8 | 0.00 | 0.10 | 0.03 | 96 | 1019.2 |
| 20260905170029 | 15 | 80 | 0.0 | 0.0 | 0.00 | 0.10 | 0.03 | 98 | 1019.0 |
| 20260905164524 | 14 | 80 | 0.0 | 0.0 | 0.00 | 0.10 | 0.03 | 100 | 1019.0 |
| 20260905163022 | 14 | 85 | 0.0 | 1.6 | 0.00 | 0.10 | 0.03 | 100 | 1019.0 |
| 20260905161518 | 13 | 60 | 0.0 | 1.6 | 0.03 | 0.10 | 0.03 | 100 | 1018.9 |
| 20260905160019 | 12 | 95 | 0.0 | 0.0 | 0.03 | 0.10 | 0.03 | 100 | 1018.9 |
| 20260905154512 | 11 | 95 | 0.0 | 0.0 | 0.03 | 0.10 | 0.03 | 100 | 1018.9 |
| 20260905153009 | 11 | 95 | 0.0 | 0.0 | 0.03 | 0.10 | 0.03 | 100 | 1019.0 |
| 20260905151616 | 10 | 95 | 0.0 | 0.0 | 0.00 | 0.08 | 0.00 | 100 | 1019.0 |
| 20260905150008 | 10 | 95 | 0.0 | 0.0 | 0.00 | 0.08 | 0.00 | 100 | 1019.0 |
| 20260905144516 | 9 | 95 | 0.0 | 0.0 | 0.00 | 0.08 | 0.00 | 100 | 1018.9 |
| 20260905143007 | 9 | 90 | 0.0 | 0.0 | 0.00 | 0.08 | 0.00 | 100 | 1018.9 |
| 20260905141505 | 9 | 90 | 0.0 | 0.0 | 0.00 | 0.08 | 0.00 | 100 | 1018.8 |
| 20260905140004 | 8 | 90 | 0.0 | 0.0 | 0.00 | 0.08 | 0.00 | 100 | 1018.8 |
| 20260905134502 | 8 | 90 | 0.0 | 0.0 | 0.00 | 0.08 | 0.00 | 100 | 1018.7 |
| 20260905133001 | 9 | 90 | 0.0 | 0.0 | 0.00 | 0.08 | 0.00 | 100 | 1018.5 |
| 20260905131617 | 9 | 90 | 0.0 | 0.0 | 0.00 | 0.08 | 0.00 | 100 | 1018.4 |
| 20260905130100 | 10 | 90 | 0.0 | 0.0 | 0.00 | 0.08 | 0.00 | 100 | 1018.3 |
| 20260905124600 | 10 | 90 | 0.0 | 0.0 | 0.00 | 0.08 | 0.00 | 100 | 1018.3 |
| 20260905123100 | 10 | 90 | 0.0 | 0.0 | 0.00 | 0.08 | 0.00 | 100 | 1018.3 |
| 20260905121558 | 10 | 90 | 0.0 | 3.2 | 0.00 | 0.08 | 0.00 | 100 | 1018.5 |
| 20260905120056 | 9 | 101 | 0.0 | 0.0 | 0.00 | 0.08 | 0.00 | 100 | 1018.3 |
| 20260905114556 | 9 | 101 | 0.0 | 0.0 | 0.00 | 0.08 | 0.00 | 100 | 1018.4 |
| 20260905113054 | 9 | 101 | 0.0 | 0.0 | 0.00 | 0.08 | 0.00 | 100 | 1018.3 |
| 20260905111656 | 9 | 101 | 0.0 | 0.0 | 0.00 | 0.08 | 0.00 | 100 | 1018.2 |
| 20260905110053 | 9 | 101 | 0.0 | 0.0 | 0.00 | 0.08 | 0.00 | 100 | 1018.4 |
| 20260905104556 | 9 | 101 | 0.0 | 0.0 | 0.00 | 0.08 | 0.00 | 100 | 1018.5 |
| 20260905103053 | 9 | 101 | 0.0 | 0.0 | 0.00 | 0.08 | 0.00 | 100 | 1018.3 |
| 20260905101550 | 8 | 101 | 0.0 | 0.0 | 0.00 | 0.08 | 0.00 | 100 | 1018.3 |
| 20260905100105 | 8 | 101 | 0.0 | 0.0 | 0.00 | 0.08 | 0.00 | 100 | 1018.4 |
| 20260905094549 | 8 | 101 | 0.0 | 0.0 | 0.00 | 0.08 | 0.00 | 100 | 1018.3 |
| 20260905093047 | 8 | 100 | 0.0 | 0.0 | 0.00 | 0.08 | 0.00 | 100 | 1018.5 |
| 20260905091546 | 8 | 100 | 0.0 | 0.0 | 0.00 | 0.08 | 0.00 | 100 | 1018.3 |
| 20260905090103 | 8 | 101 | 0.0 | 0.0 | 0.00 | 0.08 | 0.00 | 100 | 1018.3 |
| 20260905084543 | 8 | 101 | 0.0 | 0.0 | 0.00 | 0.08 | 0.00 | 100 | 1018.1 |
| 20260905083048 | 9 | 101 | 0.0 | 0.0 | 0.00 | 0.08 | 0.00 | 100 | 1018.1 |
| 20260905081547 | 9 | 101 | 0.0 | 0.0 | 0.00 | 0.08 | 0.00 | 100 | 1018.1 |
| 20260905080045 | 9 | 101 | 0.0 | 0.0 | 0.00 | 0.08 | 0.00 | 100 | 1017.9 |
| 20260905074535 | 10 | 101 | 0.0 | 0.0 | 0.00 | 0.08 | 0.00 | 100 | 1017.8 |
| 20260905073037 | 10 | 101 | 0.0 | 0.0 | 0.00 | 0.08 | 0.00 | 100 | 1017.6 |
| 20260905071530 | 10 | 101 | 0.0 | 0.0 | 0.00 | 0.08 | 0.00 | 100 | 1017.5 |
| 20260905070031 | 11 | 101 | 0.0 | 0.0 | 0.00 | 0.08 | 0.08 | 100 | 1017.5 |
| 20260905064526 | 11 | 101 | 0.0 | 0.0 | 0.00 | 0.08 | 0.08 | 99 | 1017.4 |
| 20260905063026 | 12 | 101 | 1.6 | 6.4 | 0.00 | 0.08 | 0.08 | 100 | 1017.2 |
| 20260905061525 | 12 | 110 | 3.2 | 14.5 | 0.00 | 0.08 | 0.08 | 100 | 1017.2 |
| 20260905060032 | 11 | 104 | 0.0 | 3.2 | 0.00 | 0.08 | 0.08 | 100 | 1017.2 |
| 20260905054535 | 12 | 90 | 0.0 | 6.4 | 0.00 | 0.08 | 0.08 | 100 | 1017.2 |
| 20260905053023 | 12 | 103 | 1.6 | 6.4 | 0.00 | 0.08 | 0.08 | 100 | 1017.3 |
| 20260905051528 | 11 | 62 | 0.0 | 0.0 | 0.00 | 0.08 | 0.08 | 100 | 1017.2 |
| 20260905050021 | 12 | 62 | 0.0 | 4.8 | 0.00 | 0.08 | 0.08 | 100 | 1017.1 |
| 20260905044528 | 12 | 74 | 0.0 | 1.6 | 0.00 | 0.08 | 0.08 | 100 | 1017.1 |
| 20260905043020 | 12 | 74 | 0.0 | 8.0 | 0.00 | 0.08 | 0.08 | 100 | 1017.1 |
| 20260905041520 | 12 | 118 | 0.0 | 0.0 | 0.00 | 0.08 | 0.08 | 100 | 1017.1 |
| 20260905040018 | 12 | 118 | 0.0 | 0.0 | 0.00 | 0.08 | 0.08 | 100 | 1017.1 |
| 20260905034518 | 12 | 118 | 0.0 | 1.6 | 0.00 | 0.08 | 0.08 | 100 | 1017.1 |
| 20260905033116 | 12 | 118 | 1.6 | 6.4 | 0.00 | 0.08 | 0.08 | 100 | 1016.9 |
| 20260905031515 | 12 | 149 | 0.0 | 0.0 | 0.00 | 0.08 | 0.08 | 100 | 1016.9 |
| 20260905030015 | 13 | 150 | 0.0 | 0.0 | 0.00 | 0.08 | 0.08 | 100 | 1016.7 |
| 20260905024515 | 13 | 150 | 0.0 | 0.0 | 0.00 | 0.08 | 0.08 | 99 | 1016.4 |
| 20260905023019 | 14 | 143 | 0.0 | 0.0 | 0.00 | 0.08 | 0.08 | 99 | 1016.4 |
| 20260905021512 | 15 | 130 | 0.0 | 0.0 | 0.00 | 0.08 | 0.08 | 99 | 1016.5 |
| 20260905020012 | 15 | 130 | 0.0 | 0.0 | 0.00 | 0.08 | 0.08 | 99 | 1016.7 |
| 20260905014511 | 15 | 129 | 0.0 | 0.0 | 0.00 | 0.08 | 0.08 | 99 | 1016.5 |
| 20260905013012 | 15 | 129 | 0.0 | 0.0 | 0.00 | 0.08 | 0.08 | 99 | 1016.5 |
| 20260905011514 | 15 | 129 | 0.0 | 0.0 | 0.03 | 0.08 | 0.08 | 99 | 1016.2 |
| 20260905010008 | 16 | 129 | 0.0 | 0.0 | 0.05 | 0.10 | 0.08 | 99 | 1016.2 |
| 20260905004506 | 16 | 129 | 0.0 | 0.0 | 0.08 | 0.10 | 0.08 | 98 | 1016.0 |
| 20260905003010 | 16 | 129 | 0.0 | 0.0 | 0.08 | 0.10 | 0.08 | 97 | 1015.9 |
| 20260905001510 | 16 | 85 | 0.0 | 3.2 | 0.05 | 0.08 | 0.05 | 94 | 1016.0 |
| 20260905000005 | 16 | 174 | 0.0 | 1.6 | 0.03 | 0.36 | 0.03 | 90 | 1015.9 |
| 20260904234503 | 17 | 172 | 0.0 | 3.2 | 0.00 | 0.33 | 0.00 | 90 | 1015.6 |
| 20260904233002 | 17 | 185 | 0.0 | 9.7 | 0.00 | 0.33 | 0.00 | 89 | 1015.5 |
| 20260904231501 | 18 | 219 | 1.6 | 6.4 | 0.00 | 0.33 | 0.00 | 88 | 1015.3 |
| 20260904230110 | 18 | 227 | 0.0 | 6.4 | 0.00 | 0.33 | 0.00 | 84 | 1015.2 |
| 20260904224559 | 18 | 151 | 0.0 | 0.0 | 0.00 | 0.33 | 0.00 | 80 | 1015.0 |
| 20260904223104 | 19 | 45 | 0.0 | 0.0 | 0.00 | 0.33 | 0.00 | 76 | 1014.9 |